Location: DAV
(33.5613°N, 82.7640°W)
Time: 01:38:26
(UTC-04:00)

Envisat - Visible Passes

Search period start: 21 July 2018 00:00
Search period end: 31 July 2018 00:00
Orbit: 764 x 766 km, 98.2° (Epoch: 20 July)

Date Brightness Start Highest point End Pass type
(mag) Time Alt. Az. Time Alt. Az. Time Alt. Az.
21 Jul 5.8 22:11:37 10° WSW 22:13:42 12° W 22:15:47 10° WNW visible
22 Jul 4.8 21:32:16 10° SSW 21:36:42 30° W 21:41:10 10° NW visible
24 Jul 5.6 21:59:17 10° SW 22:02:26 16° W 22:05:35 10° NW visible
25 Jul 4.4 21:20:46 10° SSW 21:25:29 39° W 21:30:15 10° NNW visible
27 Jul 5.4 21:47:22 10° SW 21:51:11 21° W 21:55:01 10° NW visible
28 Jul 3.9 21:09:22 10° S 21:14:18 51° W 21:19:15 10° NNW visible
29 Jul 5.9 22:15:38 10° WSW 22:16:59 11° W 22:18:19 10° WNW visible
30 Jul 5.0 21:35:40 10° SSW 21:39:57 27° W 21:44:16 10° NW visible
